Torna al catalogo

STARLINK-5717

AttivoComunicazioniVLEO
NORAD 55618·PAYLOAD·🇺🇸 United States

Lanciato Feb 12, 2023 da Cape Canaveral Space Force Station

Loading…

Prossimi Passaggi (prossime 24 ore)

TLE

AggiornatoSource: CelesTrak SupGP

Epoca: Sep 14, 2026, 21:45 UTC

1 55618C 23020BB  26257.90673611 -.00030864  00000+0 -11177-2 0  2575
2 55618  43.0030   5.5004 0001472 269.1386 289.5195 15.27599636    13

Traccia STARLINK-5717 in tempo reale con AllMySat

Download on the App Store